KROZINGEN Weather Reports


Display with metric or nautical units.
time (UTC)temp
F
wind
direction
speed
MPH
gust
MPH
rain 1hr
in
rain 24hr
in
rain mn
in
humidity
%
barometer
mb
20260505193209 57 139 2.0 0.0 0.00 0.00 0.13 86 1009.0
20260505190215 58 207 3.0 0.0 0.00 0.00 0.13 83 1008.8
20260505183212 59 143 3.0 0.0 0.00 0.00 0.13 85 1008.3
20260505180211 61 191 9.0 0.0 0.00 0.00 0.13 81 1008.4
20260505173210 64 127 4.0 0.0 0.00 0.00 0.13 73 1008.2
20260505170210 66 226 8.0 0.0 0.00 0.00 0.13 69 1008.1
20260505163211 64 123 8.0 0.0 0.00 0.00 0.13 74 1008.2
20260505153210 60 271 5.0 0.0 0.00 0.00 0.13 90 1008.2
20260505150215 58 217 4.0 0.0 0.00 0.00 0.13 90 1008.2
20260505140210 66 216 3.0 0.0 0.00 0.00 0.00 69 1007.7
20260505130210 64 30 5.0 0.0 0.00 0.00 0.00 73 1008.3
20260505123210 63 13 2.0 0.0 0.00 0.00 0.00 76 1008.5
20260505120210 61 252 4.0 0.0 0.00 0.00 0.00 80 1008.9
20260505113210 61 266 3.0 0.0 0.00 0.00 0.00 80 1009.2
20260505110211 61 229 4.0 0.0 0.00 0.00 0.00 80 1009.2
20260505100212 60 331 1.0 0.0 0.00 0.00 0.00 84 1009.3
20260505093212 60 349 1.0 0.0 0.00 0.00 0.00 83 1009.1
20260505090211 59 34 2.0 0.0 0.00 0.00 0.00 87 1009.5
20260505083211 60 51 1.0 0.0 0.00 0.00 0.00 86 1009.8
20260505080210 59 30 1.0 0.0 0.00 0.00 0.00 85 1009.9
20260505073210 58 250 1.0 0.0 0.00 0.00 0.00 89 1010.1
20260505070211 56 238 2.0 0.0 0.00 0.00 0.00 91 1010.2
20260505063211 55 273 2.0 0.0 0.00 0.00 0.00 92 1010.3
20260505060212 54 198 0.0 0.0 0.00 0.00 0.00 93 1010.5
20260505053211 54 229 1.0 0.0 0.00 0.00 0.00 94 1010.5
20260505050211 53 227 1.0 0.0 0.00 0.00 0.00 94 1010.4
20260505040210 53 124 2.0 0.0 0.00 0.00 0.00 92 1010.4
20260505033211 53 300 1.0 0.0 0.00 0.00 0.00 93 1010.3
20260505030213 53 185 5.0 0.0 0.00 0.00 0.00 92 1010.4
20260505023211 53 117 1.0 0.0 0.00 0.00 0.00 93 1010.8
20260505020211 52 117 0.0 0.0 0.00 0.00 0.00 93 1011.1
20260505013211 53 241 0.0 0.0 0.00 0.00 0.00 93 1011.4
20260505010211 53 241 1.0 0.0 0.00 0.00 0.00 92 1011.6
20260505003208 54 127 2.0 0.0 0.00 0.00 0.00 90 1011.9
20260505000211 55 122 1.0 0.0 0.00 0.00 0.00 91 1012.2
20260504233209 55 103 0.0 0.0 0.00 0.00 0.00 92 1012.4
20260504230209 55 103 0.0 0.0 0.00 0.00 0.00 93 1012.7
20260504223214 55 101 0.0 0.0 0.00 0.00 0.00 92 1012.6
20260504220209 55 91 1.0 0.0 0.00 0.00 0.02 92 1012.6
20260504213209 55 137 1.0 0.0 0.00 0.00 0.02 92 1013.3
20260504210209 56 252 0.0 0.0 0.00 0.00 0.02 91 1013.4
20260504203209 57 129 1.0 0.0 0.00 0.00 0.02 90 1013.4
20260504200209 58 112 2.0 0.0 0.00 0.00 0.02 90 1013.3